Regional Weather Roundup
Issued by NWS

Home | Current Version | Previous Version | Graphics & Text | Print | Product List | Glossary Off
Versions: 1 2 3 4 5 6 7 8 9 10 11 12 13 14 15 16 17 18 19 20 21 22 23 24 25 26 27 28 29 30 31 32 33 34 35 36 37 38 39 40 41 42 43 44 45 46 47 48 49 50

000
ASUS43 KMKX 282159
RWRWI

WISCONSIN REGIONAL WEATHER ROUNDUP
NATIONAL WEATHER SERVICE MILWAUKEE/SULLIVAN WI
400 PM CST WED JAN 28 2015

NOTE: "FAIR" INDICATES FEW OR NO CLOUDS BELOW 12,000 FEET WITH NO
SIGNIFICANT WEATHER AND/OR OBSTRUCTIONS TO VISIBILITY.

WIZ001-002-006>008-014>016-023>028-282300-
NORTHWEST WISCONSIN

CITY           SKY/WX    TMP DP  RH WIND       PRES   REMARKS
SUPERIOR ARPT  CLOUDY    32  25  75 S3        29.84S
ASHLAND        CLOUDY    33  23  66 S7        29.84F WCI  27
HAYWARD        CLOUDY    28  22  78 SE10      29.82F HAZE    WCI  19
SIREN          CLOUDY    31  25  78 SE8       29.83F HAZE    WCI  24
CUMBERLAND     CLOUDY    28  23  80 SE13      29.81F HAZE    WCI  18
RICE LAKE      CLOUDY    30  25  81 E12       29.84F HAZE    WCI  20
CHETEK         CLOUDY    30  24  81 E8G17     29.83F WCI  22
LADYSMITH      CLOUDY    28  24  84 SE8       29.88F WCI  20
EAU CLAIRE     CLOUDY    30  23  75 SE14      29.83F HAZE    WCI  19
MENOMONIE      CLOUDY    31  26  81 E14       29.83F HAZE    WCI  21
NEW RICHMOND   CLOUDY    31  26  82 SE12G17   29.82S FOG     WCI  21
OSCEOLA        CLOUDY    31  27  83 SE8       29.85S FOG     WCI  24
$$

WIZ003>005-009-010-017-018-282300-
NORTH CENTRAL WISCONSIN

CITY           SKY/WX    TMP DP  RH WIND       PRES   REMARKS
MANITOWISH WTR CLOUDY    29  21  73 S10       29.86F WCI  20
ARBOR VITAE    CLOUDY    32  24  72 S12G17    29.88S WCI  23
WOODRUFF       CLOUDY    32  24  72 S12G17    29.88S WCI  23
RHINELANDER    CLOUDY    28  20  71 SE8       29.90F WCI  20
EAGLE RIVER    CLOUDY    29  19  66 S10G16    29.88F WCI  20
LAND O LAKES   CLOUDY    30  22  70 S9        29.87F WCI  22
PHILLIPS       CLOUDY    28  21  77 S12G17    29.87F WCI  17
TOMAHAWK       CLOUDY    28  21  73 SE3       29.91F
MEDFORD        CLOUDY    25  22  88 SE12G17   29.88F FOG     WCI  14
MERRILL        CLOUDY    29  21  72 SE12G17   29.92F WCI  20
$$

WIZ029-030-035-036-043>047-282300-
CENTRAL WISCONSIN

CITY           SKY/WX    TMP DP  RH WIND       PRES   REMARKS
WAUSAU         CLOUDY    29  21  72 SE12      29.91F WCI  19
MOSINEE        PTCLDY    28  23  80 SE7       29.93F WCI  21
MARSHFIELD     CLOUDY    28  23  81 SE10      29.89F HAZE    WCI  19
STEVENS POINT  CLOUDY    28  21  74 SE9       29.96F WCI  19
WAUPACA        CLOUDY    32  21  63 SE10      29.99F WCI  24
WAUTOMA        NOT AVBL
WISC RAPIDS    CLOUDY    30  21  69 SE10      29.93F WCI  21
CAMP DOUGLAS   NOT AVBL
$$

WIZ011>013-019>022-031-037>040-048>050-282300-
NORTHEAST WISCONSIN

CITY           SKY/WX    TMP DP  RH WIND       PRES   REMARKS
ANTIGO         CLOUDY    26  21  80 SE13      29.94F WCI  15
SHAWANO        MOCLDY    32  21  64 SE9       30.01F WCI  24
OCONTO         CLOUDY    31  25  81 S8        30.04F WCI  23
STURGEON BAY   CLOUDY    30  25  80 S15       30.05F WCI  19
GREEN BAY      CLOUDY    31  24  75 SE14      30.02F WCI  21
MANITOWOC      NOT AVBL
APPLETON       CLOUDY    30  19  64 S10       30.01F WCI  21
CLINTONVILLE   CLOUDY    32  21  64 S8        30.01F WCI  25
OSHKOSH        CLOUDY    32  21  64 SE8       30.00F WCI  25
$$

WIZ032>034-041-042-053>061-282300-
SOUTHWEST WISCONSIN

CITY           SKY/WX    TMP DP  RH WIND       PRES   REMARKS
LA CROSSE      MOCLDY    36  25  64 SE15      29.84F WCI  27
SPARTA         MOCLDY    33  25  72 SE9       29.88F WCI  25
VIROQUA        MOCLDY    32  24  71 SE18      29.84F WCI  20
BOSCOBEL       PTSUNNY   35  21  56 S6        29.91F WCI  30
PRAIRIE DU CHI MOSUNNY   35  22  58 SE12G20   29.87F WCI  27
PLATTEVILLE    MOSUNNY   32  24  71 E20       29.90F WCI  20
$$

WIZ056-057-062-063-064-067-068-282300-
SOUTH CENTRAL WISCONSIN

CITY           SKY/WX    TMP DP  RH WIND       PRES   REMARKS
REEDSBURG      MOCLDY    32  23  68 SE9       29.92F WCI  24
BARABOO/DELLS  MOCLDY    32  23  69 SE9       29.92F WCI  24
LONE ROCK      NOT AVBL
MINERAL POINT  CLOUDY    34  25  69 SE16G25   29.89F WCI  23
MADISON        CLOUDY    31  22  69 SE13      29.95F WCI  21
MIDDLETON      MOCLDY    34  22  62 SE13      29.95F WCI  25
WATERTOWN      MOCLDY    32  21  62 SE8G16    29.99F WCI  25
MONROE         MOCLDY    32  27  80 SE17G23   29.94F WCI  21
JANESVILLE     CLEAR     34  25  69 SE14      29.98F WCI  24
$$

WIZ051-052-058>065-066-070>072-282300-
SOUTHEAST WISCONSIN

CITY           SKY/WX    TMP DP  RH WIND       PRES   REMARKS
MILWAUKEE      CLOUDY    33  20  58 S18       30.06F WCI  22
WAUKESHA       CLEAR     32  18  55 SE13      30.03F WCI  22
MILWAUKEE/TIMM CLEAR     32  18  55 SE9       30.06F WCI  24
RACINE         MOCLDY    32  21  64 S16G25    30.08F WCI  21
BURLINGTON     MOCLDY    33  18  55 SE14      30.03F WCI  23
KENOSHA        MOCLDY    33  21  61 SE17      30.05F WCI  22
FOND DU LAC    CLOUDY    33  21  61 SE14      30.00F WCI  23
SHEBOYGAN      MOCLDY    31  22  69 S12       30.04F WCI  22
WEST BEND      CLOUDY    32  21  64 SE8       30.03F WCI  25
JUNEAU         CLOUDY    32  21  63 SE13      30.01F WCI  23
$$

LSZ147-162-282300-
LAKE SUPERIOR

STATION/POSITION TIME  TEMP    WIND        PRES    WAVE
                       AIR SEA DIR/SP/G            HT/PER
                 (UTC) (F)     (DEG/KT/KT) (MB)    (FT/S)
DEVILS ISLAND    2100   30     120/  5/  7 1012.3F
PORT WING        2140   30      20/  7/  7 1010.8F
SAXON HARBOR     2100   35     180/  5/ 12 1011.2F
$$

LMZ867-665-643>646-282300-
LAKE MICHIGAN

STATION/POSITION TIME  TEMP    WIND        PRES    WAVE
                       AIR SEA DIR/SP/G            HT/PER
                 (UTC) (F)     (DEG/KT/KT) (MB)    (FT/S)
NORTHPORT PIER   2108   32     160/  7/ 15 1018.6F
SISTER BAY       2113   32     170/ 12/ 15   N/A
KEWAUNEE LAKESHO 2100   31     180/ 21/ 23 1017.8F
SHEBOYGAN LAKESH 2100   32     170/ 22/ 24 1019.2F
PORT WASHINGTON  2100   33     160/ 17/ 21 1019.0F
MILWAUKEE LAKESH 2100   32     160/ 19/ 22   N/A
KENOSHA   LAKESH 2100   32     160/ 20/ 24 1018.6F
$$

TC  - TEMPERATURE IN CELSIUS
VSB - VISIBILITY IN STATUTE MILES
WCI - WIND CHILL INDEX
HX  - HEAT INDEX




USA.gov is the U.S. government's official web portal to all federal, state and local government web resources and services.